Location: Leiter
(44.7178°N, 106.2687°W)
Time: 14:56:44
(UTC+00:00)

Gurwin Techsat 1B - Visible Passes

Search period start: 25 June 2022 00:00
Search period end: 05 July 2022 00:00
Orbit: 811 x 814 km, 98.8° (Epoch: 24 June)

Date Brightness Start Highest point End Pass type
(mag) Time Alt. Az. Time Alt. Az. Time Alt. Az.
25 Jun 9.1 09:25:33 10° NNE 09:30:48 58° E 09:35:23 14° S visible
26 Jun 9.8 09:02:51 10° NNE 09:07:46 36° E 09:12:08 12° SSE visible
27 Jun 10.4 08:40:26 10° NE 08:44:38 23° E 08:48:49 10° SE visible
27 Jun 9.0 10:19:41 10° N 10:24:48 50° WNW 10:29:54 10° SW visible
28 Jun 10.9 08:18:33 10° NE 08:21:26 15° E 08:24:17 10° ESE visible
28 Jun 8.6 09:56:36 10° NNE 10:01:56 78° WNW 10:06:50 12° SSW visible
29 Jun 8.9 09:33:41 10° NNE 09:39:00 68° ESE 09:43:35 14° S visible
30 Jun 9.5 09:10:55 10° NNE 09:15:59 43° E 09:20:19 14° SSE visible
01 Jul 10.2 08:48:23 10° NE 08:52:53 27° E 08:57:04 11° SSE visible
01 Jul 9.2 10:27:55 10° N 10:32:56 43° WNW 10:37:55 10° SW visible
02 Jul 10.8 08:26:15 10° NE 08:29:42 17° E 08:33:07 10° SE visible
02 Jul 8.7 10:04:48 10° N 10:10:05 67° WNW 10:15:01 12° SSW visible
03 Jul 11.2 08:05:47 10° E 08:06:26 10° E 08:07:04 10° E visible
03 Jul 8.7 09:41:49 10° NNE 09:47:11 79° ESE 09:51:45 14° S visible
04 Jul 9.3 09:19:00 10° NNE 09:24:11 50° E 09:28:30 15° S visible
